TWB652 RCKH-RKSS

Flight info

Callsign TWB652
Flight time 2h 30m
Altitude 35000
Route TNN W4 ANLOT B1 APU L3 SALMI Y743 BOLUT Y741 ATOTI Y722 OLMEN
Aircraft B738/M-VGDW/C

Departure

Time 2026-04-28 10:40
Airport Kaohsiung International Airport (RCKH)

Arrival

Time 2026-04-28 13:10
Airport Gimpo International Airport (RKSS)
Time Latitude Longitude Altitude Speed Heading
2026-04-28 10:15 22.57285 120.33969 40 ft 0 kts 272°
2026-04-28 10:30 22.57285 120.33970 40 ft 1 kts 272°
2026-04-28 10:31 22.57284 120.33986 40 ft 2 kts 272°
2026-04-28 10:31 22.57284 120.34002 40 ft 2 kts 272°
2026-04-28 10:31 22.57283 120.34018 40 ft 2 kts 272°
2026-04-28 10:31 22.57280 120.34034 40 ft 2 kts 302°
2026-04-28 10:32 22.57270 120.34046 40 ft 2 kts 329°
2026-04-28 10:32 22.57256 120.34051 40 ft 1 kts 357°
2026-04-28 10:32 22.57250 120.34051 40 ft 1 kts
2026-04-28 10:32 22.57247 120.34051 40 ft 0 kts
2026-04-28 10:35 22.57257 120.34051 40 ft 3 kts
2026-04-28 10:36 22.57298 120.34052 40 ft 8 kts
2026-04-28 10:36 22.57370 120.34055 40 ft 11 kts
2026-04-28 10:36 22.57409 120.34094 40 ft 9 kts 89°
2026-04-28 10:36 22.57458 120.34126 40 ft 11 kts
2026-04-28 10:37 22.57550 120.34129 40 ft 9 kts 353°
2026-04-28 10:37 22.57570 120.34056 40 ft 12 kts 272°
2026-04-28 10:37 22.57574 120.33948 40 ft 16 kts 271°
2026-04-28 10:37 22.57578 120.33809 40 ft 19 kts 272°
2026-04-28 10:38 22.57582 120.33656 40 ft 17 kts 272°
2026-04-28 10:38 22.57588 120.33536 40 ft 14 kts 281°
2026-04-28 10:38 22.57663 120.33501 40 ft 8 kts
2026-04-28 10:38 22.57738 120.33505 40 ft 12 kts
2026-04-28 10:39 22.57753 120.33589 40 ft 14 kts 95°
2026-04-28 10:39 22.57744 120.33797 40 ft 58 kts 92°
2026-04-28 10:39 22.57721 120.34546 40 ft 137 kts 92°
2026-04-28 10:39 22.57690 120.35786 250 ft 181 kts 92°
2026-04-28 10:40 22.57659 120.37148 1043 ft 187 kts 91°
2026-04-28 10:40 22.57430 120.38593 1647 ft 208 kts 116°
2026-04-28 10:40 22.56478 120.39805 2140 ft 225 kts 150°
2026-04-28 10:40 22.54993 120.40281 2891 ft 230 kts 185°
2026-04-28 10:41 22.53473 120.39789 3700 ft 232 kts 214°
2026-04-28 10:41 22.52247 120.38669 4433 ft 239 kts 234°
2026-04-28 10:41 22.51350 120.37079 4828 ft 262 kts 247°
2026-04-28 10:41 22.50453 120.35400 5960 ft 259 kts 233°
2026-04-28 10:42 22.49233 120.34018 6968 ft 259 kts 226°
2026-04-28 10:42 22.47974 120.32627 7842 ft 261 kts 227°
2026-04-28 10:42 22.46726 120.31217 8663 ft 263 kts 228°
2026-04-28 10:42 22.45457 120.29787 9436 ft 267 kts 226°
2026-04-28 10:43 22.44162 120.28326 10184 ft 272 kts 225°
2026-04-28 10:43 22.42869 120.26868 10929 ft 275 kts 225°
2026-04-28 10:43 22.41543 120.25375 11652 ft 278 kts 224°
2026-04-28 10:43 22.40202 120.23863 12396 ft 280 kts 224°
2026-04-28 10:44 22.38860 120.22349 13117 ft 282 kts 224°
2026-04-28 10:44 22.37579 120.20724 13683 ft 293 kts 237°
2026-04-28 10:44 22.36903 120.18568 13794 ft 320 kts 265°
2026-04-28 10:44 22.37089 120.16136 14049 ft 337 kts 287°
2026-04-28 10:45 22.38145 120.13796 14168 ft 357 kts 312°
2026-04-28 10:45 22.40122 120.12104 14300 ft 371 kts 339°
2026-04-28 10:45 22.42620 120.11545 14820 ft 371 kts
2026-04-28 10:45 22.45163 120.11890 15497 ft 375 kts 12°
2026-04-28 10:46 22.47754 120.12327 16193 ft 381 kts 11°
2026-04-28 10:46 22.50391 120.12678 16896 ft 386 kts
2026-04-28 10:46 22.53055 120.13016 17583 ft 391 kts
2026-04-28 10:46 22.55766 120.13364 18258 ft 396 kts
2026-04-28 10:47 22.58522 120.13716 18917 ft 400 kts
2026-04-28 10:47 22.61273 120.14063 19558 ft 405 kts
2026-04-28 10:47 22.64075 120.14414 20194 ft 409 kts
2026-04-28 10:47 22.66882 120.14767 20799 ft 413 kts
2026-04-28 10:48 22.69772 120.15129 21399 ft 418 kts
2026-04-28 10:48 22.72636 120.15488 21971 ft 422 kts
2026-04-28 10:48 22.75580 120.15857 22535 ft 426 kts
2026-04-28 10:48 22.78500 120.16222 23076 ft 430 kts
2026-04-28 10:49 22.81476 120.16595 23611 ft 434 kts
2026-04-28 10:49 22.84479 120.16972 24133 ft 437 kts
2026-04-28 10:49 22.87509 120.17352 24644 ft 441 kts
2026-04-28 10:49 22.90550 120.17734 25099 ft 446 kts
2026-04-28 10:50 22.93623 120.18120 25540 ft 450 kts
2026-04-28 10:50 22.96739 120.18510 25979 ft 455 kts
2026-04-28 10:50 22.99874 120.18904 26413 ft 459 kts
2026-04-28 10:50 23.03085 120.19308 26846 ft 463 kts
2026-04-28 10:51 23.06287 120.19710 27282 ft 466 kts
2026-04-28 10:51 23.09512 120.20122 27715 ft 469 kts
2026-04-28 10:51 23.12697 120.20704 28123 ft 471 kts 13°
2026-04-28 10:51 23.15890 120.21654 28534 ft 473 kts 18°
2026-04-28 10:52 23.19004 120.22765 28929 ft 476 kts 19°
2026-04-28 10:52 23.22137 120.23879 29307 ft 479 kts 19°
2026-04-28 10:52 23.25320 120.24992 29692 ft 481 kts 19°
2026-04-28 10:52 23.28499 120.26112 30291 ft 478 kts 19°
2026-04-28 10:53 23.31616 120.27224 30803 ft 476 kts 19°
2026-04-28 10:53 23.34753 120.28352 31309 ft 475 kts 19°
2026-04-28 10:53 23.37849 120.29468 31771 ft 474 kts 19°
2026-04-28 10:53 23.40966 120.30594 32213 ft 473 kts 19°
2026-04-28 10:54 23.44083 120.31722 32636 ft 472 kts 19°
2026-04-28 10:54 23.47197 120.32851 33044 ft 471 kts 19°
2026-04-28 10:54 23.50283 120.33972 33433 ft 470 kts 19°
2026-04-28 10:54 23.53364 120.35092 33810 ft 470 kts 19°
2026-04-28 10:55 23.56417 120.36204 34175 ft 469 kts 19°
2026-04-28 10:55 23.59508 120.37329 34540 ft 468 kts 19°
2026-04-28 10:55 23.62582 120.38448 34873 ft 467 kts 19°
2026-04-28 10:56 23.68788 120.40703 34930 ft 470 kts 19°
2026-04-28 10:56 23.74912 120.42931 34935 ft 466 kts 19°
2026-04-28 10:57 23.81053 120.45167 34938 ft 466 kts 19°
2026-04-28 10:57 23.87174 120.47457 34938 ft 466 kts 22°
2026-04-28 10:58 23.92939 120.50617 34939 ft 464 kts 35°
2026-04-28 10:58 23.98096 120.54766 34939 ft 464 kts 37°
2026-04-28 10:59 24.03317 120.58917 34939 ft 464 kts 37°
2026-04-28 10:59 24.08520 120.63084 34939 ft 464 kts 37°
2026-04-28 11:00 24.13695 120.67253 34939 ft 464 kts 38°
2026-04-28 11:00 24.18905 120.71458 34939 ft 464 kts 38°
2026-04-28 11:01 24.24084 120.75648 34939 ft 464 kts 38°
2026-04-28 11:01 24.29239 120.79826 34939 ft 464 kts 38°
2026-04-28 11:02 24.34431 120.84038 34939 ft 464 kts 38°
2026-04-28 11:02 24.39600 120.88236 34939 ft 464 kts 38°
2026-04-28 11:03 24.44757 120.92430 34939 ft 464 kts 38°
2026-04-28 11:03 24.49903 120.96620 34939 ft 464 kts 38°
2026-04-28 11:04 24.55087 121.00845 34939 ft 462 kts 38°
2026-04-28 11:04 24.60194 121.05011 34939 ft 460 kts 38°
2026-04-28 11:05 24.65317 121.09196 34939 ft 458 kts 38°
2026-04-28 11:05 24.70406 121.13357 34939 ft 457 kts 38°
2026-04-28 11:05 24.72955 121.15442 35062 ft 454 kts 38°
2026-04-28 11:06 24.75490 121.17518 35062 ft 456 kts 38°
2026-04-28 11:06 24.80564 121.21676 35063 ft 455 kts 38°
2026-04-28 11:07 24.85608 121.25813 35064 ft 454 kts 38°
2026-04-28 11:07 24.90656 121.29958 35064 ft 454 kts 38°
2026-04-28 11:08 24.95696 121.34100 35064 ft 455 kts 38°
2026-04-28 11:08 25.00771 121.38276 35064 ft 456 kts 38°
2026-04-28 11:09 25.05882 121.42486 35064 ft 460 kts 37°
2026-04-28 11:09 25.10985 121.46693 35064 ft 463 kts 37°
2026-04-28 11:10 25.16183 121.50854 35063 ft 465 kts 33°
2026-04-28 11:10 25.21918 121.54079 35064 ft 464 kts 22°
2026-04-28 11:11 25.27848 121.56850 35064 ft 464 kts 23°
2026-04-28 11:11 25.33778 121.59686 35064 ft 464 kts 23°
2026-04-28 11:12 25.39683 121.62470 35064 ft 464 kts 23°
2026-04-28 11:12 25.45587 121.65250 35064 ft 464 kts 23°
2026-04-28 11:13 25.51506 121.68033 35064 ft 464 kts 23°
2026-04-28 11:13 25.57454 121.70829 35064 ft 464 kts 23°
2026-04-28 11:14 25.63347 121.73601 35064 ft 464 kts 23°
2026-04-28 11:14 25.69300 121.76402 35064 ft 464 kts 23°
2026-04-28 11:15 25.75224 121.79193 35064 ft 464 kts 23°
2026-04-28 11:15 25.80965 121.82323 35063 ft 463 kts 32°
2026-04-28 11:16 25.86194 121.86417 35064 ft 463 kts 37°
2026-04-28 11:16 25.91411 121.90560 35064 ft 463 kts 36°
2026-04-28 11:17 25.96637 121.94739 35064 ft 463 kts 36°
2026-04-28 11:17 26.01819 121.98917 35064 ft 463 kts 37°
2026-04-28 11:18 26.07049 122.03050 35064 ft 463 kts 35°
2026-04-28 11:18 26.12325 122.07139 35064 ft 463 kts 36°
2026-04-28 11:19 26.17562 122.11234 35064 ft 463 kts 36°
2026-04-28 11:19 26.22822 122.15352 35064 ft 463 kts 36°
2026-04-28 11:20 26.28070 122.19468 35064 ft 463 kts 36°
2026-04-28 11:20 26.33327 122.23596 35064 ft 463 kts 36°
2026-04-28 11:21 26.38574 122.27723 34934 ft 464 kts 36°
2026-04-28 11:21 26.43813 122.31848 34939 ft 462 kts 36°
2026-04-28 11:22 26.49055 122.35980 34939 ft 463 kts 36°
2026-04-28 11:22 26.54302 122.40121 34939 ft 464 kts 36°
2026-04-28 11:23 26.59544 122.44263 34939 ft 464 kts 36°
2026-04-28 11:23 26.64785 122.48409 34939 ft 463 kts 36°
2026-04-28 11:24 26.70030 122.52563 34939 ft 463 kts 36°
2026-04-28 11:24 26.75290 122.56734 34939 ft 463 kts 36°
2026-04-28 11:25 26.80511 122.60879 34939 ft 464 kts 36°
2026-04-28 11:25 26.85758 122.65048 34939 ft 463 kts 36°
2026-04-28 11:26 26.91014 122.69229 34943 ft 462 kts 36°
2026-04-28 11:26 26.96144 122.73315 34944 ft 452 kts 36°
2026-04-28 11:27 27.01220 122.77363 34942 ft 446 kts 36°
2026-04-28 11:27 27.06255 122.81383 34939 ft 447 kts 36°
2026-04-28 11:28 27.11332 122.85442 34939 ft 449 kts 36°
2026-04-28 11:28 27.16393 122.89500 34940 ft 448 kts 36°
2026-04-28 11:29 27.21432 122.93543 34944 ft 448 kts 36°
2026-04-28 11:29 27.26291 122.97913 34949 ft 450 kts 42°
2026-04-28 11:30 27.31015 123.02552 34954 ft 452 kts 41°
2026-04-28 11:30 27.38196 123.09450 34974 ft 455 kts 40°
2026-04-28 11:31 27.43003 123.14075 35019 ft 456 kts 40°
2026-04-28 11:31 27.47801 123.18690 35059 ft 456 kts 40°
2026-04-28 11:32 27.52605 123.23314 35099 ft 455 kts 40°
2026-04-28 11:32 27.57410 123.27943 35101 ft 455 kts 40°
2026-04-28 11:33 27.62206 123.32568 35101 ft 455 kts 40°
2026-04-28 11:33 27.66978 123.37174 35101 ft 455 kts 40°
2026-04-28 11:34 27.71764 123.41799 35101 ft 455 kts 40°
2026-04-28 11:34 27.76563 123.46443 35101 ft 455 kts 40°
2026-04-28 11:35 27.81348 123.51079 35101 ft 455 kts 40°
2026-04-28 11:35 27.86135 123.55722 35101 ft 455 kts 40°
2026-04-28 11:36 27.90928 123.60376 35101 ft 455 kts 40°
2026-04-28 11:36 27.95723 123.65037 35101 ft 455 kts 40°
2026-04-28 11:37 28.00521 123.69707 35101 ft 455 kts 40°
2026-04-28 11:37 28.05304 123.74368 35101 ft 455 kts 40°
2026-04-28 11:38 28.10053 123.79002 35101 ft 455 kts 40°
2026-04-28 11:38 28.14835 123.83674 35101 ft 455 kts 40°
2026-04-28 11:39 28.19623 123.88357 35101 ft 454 kts 40°
2026-04-28 11:39 28.24381 123.93017 35101 ft 455 kts 40°
2026-04-28 11:40 28.29128 123.97709 35101 ft 455 kts 43°
2026-04-28 11:40 28.33337 124.03054 35102 ft 454 kts 53°
2026-04-28 11:41 28.37088 124.08749 35101 ft 455 kts 52°
2026-04-28 11:41 28.40914 124.14472 35101 ft 455 kts 53°
2026-04-28 11:42 28.44698 124.20217 35101 ft 454 kts 53°
2026-04-28 11:42 28.48454 124.25944 35101 ft 454 kts 53°
2026-04-28 11:43 28.52220 124.31706 35101 ft 455 kts 53°
2026-04-28 11:43 28.55965 124.37451 35101 ft 455 kts 53°
2026-04-28 11:44 28.59717 124.43220 35101 ft 455 kts 53°
2026-04-28 11:44 28.63478 124.49010 35101 ft 455 kts 53°
2026-04-28 11:45 28.67217 124.54775 35101 ft 454 kts 53°
2026-04-28 11:45 28.70935 124.60519 35098 ft 454 kts 53°
2026-04-28 11:46 28.74724 124.66318 35095 ft 454 kts 50°
2026-04-28 11:46 28.76949 124.68813 35097 ft 454 kts 37°
2026-04-28 11:46 28.79612 124.70744 35103 ft 454 kts 29°
2026-04-28 11:47 28.85370 124.73528 35101 ft 454 kts 18°
2026-04-28 11:47 28.91340 124.75861 35101 ft 454 kts 19°
2026-04-28 11:48 28.97252 124.78256 35101 ft 454 kts 19°
2026-04-28 11:48 29.03224 124.80643 35100 ft 455 kts 18°
2026-04-28 11:49 29.09167 124.83025 35098 ft 455 kts 18°
2026-04-28 11:49 29.15100 124.85414 35096 ft 453 kts 18°
2026-04-28 11:50 29.21000 124.87789 35097 ft 453 kts 18°
2026-04-28 11:50 29.26957 124.90170 35099 ft 453 kts 18°
2026-04-28 11:51 29.32870 124.92526 35101 ft 452 kts 18°
2026-04-28 11:51 29.38767 124.94891 35101 ft 452 kts 18°
2026-04-28 11:52 29.44674 124.97271 35101 ft 451 kts 18°
2026-04-28 11:52 29.50586 124.99654 35116 ft 451 kts 18°
2026-04-28 11:53 29.56485 125.02033 35136 ft 450 kts 18°
2026-04-28 11:53 29.62357 125.04404 35155 ft 450 kts 18°
2026-04-28 11:54 29.68224 125.06777 35155 ft 450 kts 18°
2026-04-28 11:54 29.74131 125.09168 35155 ft 450 kts 18°
2026-04-28 11:55 29.80018 125.11554 35155 ft 450 kts 18°
2026-04-28 11:55 29.85909 125.13945 35155 ft 450 kts 18°
2026-04-28 11:56 29.91800 125.16338 35155 ft 450 kts 18°
2026-04-28 11:56 29.97655 125.18720 35155 ft 449 kts 18°
2026-04-28 11:57 30.03530 125.21115 35155 ft 449 kts 18°
2026-04-28 11:57 30.09393 125.23515 35155 ft 450 kts 18°
2026-04-28 11:58 30.15293 125.25931 35155 ft 450 kts 18°
2026-04-28 11:58 30.21178 125.28344 35155 ft 450 kts 18°
2026-04-28 11:59 30.27014 125.30740 35155 ft 450 kts 18°
2026-04-28 11:59 30.32925 125.33170 35155 ft 450 kts 18°
2026-04-28 12:00 30.38775 125.35577 35155 ft 449 kts 18°
2026-04-28 12:00 30.44617 125.37985 35155 ft 449 kts 18°
2026-04-28 12:01 30.50512 125.40417 35155 ft 449 kts 18°
2026-04-28 12:01 30.56354 125.42831 35155 ft 449 kts 18°
2026-04-28 12:02 30.62211 125.45254 35155 ft 449 kts 18°
2026-04-28 12:02 30.68097 125.47692 35155 ft 449 kts 18°
2026-04-28 12:03 30.73955 125.50122 35155 ft 449 kts 18°
2026-04-28 12:03 30.79803 125.52551 35155 ft 449 kts 18°
2026-04-28 12:04 30.85690 125.54999 35155 ft 449 kts 18°
2026-04-28 12:04 30.91515 125.57425 35155 ft 449 kts 17°
2026-04-28 12:05 30.97407 125.59882 35155 ft 452 kts 17°
2026-04-28 12:05 31.03361 125.62370 35155 ft 456 kts 15°
2026-04-28 12:06 31.09326 125.64871 35098 ft 459 kts 15°
2026-04-28 12:06 31.15269 125.67348 35082 ft 455 kts 16°
2026-04-28 12:07 31.21205 125.69821 35082 ft 457 kts 16°
2026-04-28 12:07 31.27193 125.72351 35082 ft 458 kts 16°
2026-04-28 12:08 31.33123 125.74843 35082 ft 456 kts 16°
2026-04-28 12:08 31.39086 125.77331 35082 ft 457 kts 16°
2026-04-28 12:09 31.45057 125.79843 35082 ft 457 kts 16°
2026-04-28 12:09 31.51015 125.82384 35082 ft 456 kts 16°
2026-04-28 12:10 31.56982 125.84920 35082 ft 458 kts 16°
2026-04-28 12:10 31.62919 125.87427 35082 ft 458 kts 16°
2026-04-28 12:11 31.68894 125.89919 35082 ft 456 kts 15°
2026-04-28 12:11 31.74852 125.92414 35082 ft 456 kts 16°
2026-04-28 12:12 31.80799 125.94939 35082 ft 457 kts 16°
2026-04-28 12:12 31.86779 125.97452 35082 ft 457 kts 16°
2026-04-28 12:13 31.92746 125.99957 35082 ft 457 kts 16°
2026-04-28 12:13 31.98672 126.02481 35082 ft 456 kts 16°
2026-04-28 12:14 32.04637 126.05025 35082 ft 457 kts 16°
2026-04-28 12:14 32.10602 126.07563 35082 ft 458 kts 16°
2026-04-28 12:15 32.16598 126.10107 35082 ft 456 kts 16°
2026-04-28 12:15 32.22538 126.12627 35082 ft 457 kts 16°
2026-04-28 12:16 32.28514 126.15155 35081 ft 457 kts 15°
2026-04-28 12:16 32.34478 126.17677 35082 ft 457 kts 16°
2026-04-28 12:17 32.40439 126.20209 35082 ft 457 kts 16°
2026-04-28 12:17 32.46373 126.22762 35082 ft 457 kts 16°
2026-04-28 12:18 32.52331 126.25309 35082 ft 457 kts 16°
2026-04-28 12:18 32.58307 126.27849 35082 ft 457 kts 16°
2026-04-28 12:19 32.64269 126.30414 35082 ft 458 kts 16°
2026-04-28 12:19 32.70209 126.32979 35082 ft 457 kts 16°
2026-04-28 12:20 32.76162 126.35526 35082 ft 456 kts 16°
2026-04-28 12:20 32.82115 126.38077 35081 ft 457 kts 16°
2026-04-28 12:21 32.88093 126.40672 35084 ft 456 kts 16°
2026-04-28 12:21 32.91044 126.41959 35185 ft 455 kts 16°
2026-04-28 12:21 32.94006 126.43243 35181 ft 457 kts 16°
2026-04-28 12:22 32.99998 126.45820 35182 ft 458 kts 15°
2026-04-28 12:22 33.06009 126.48408 35182 ft 463 kts 14°
2026-04-28 12:23 33.12091 126.51027 35182 ft 470 kts 13°
2026-04-28 12:23 33.18206 126.53657 35182 ft 472 kts 13°
2026-04-28 12:24 33.24365 126.56314 35182 ft 469 kts 13°
2026-04-28 12:24 33.30472 126.58961 35182 ft 468 kts 13°
2026-04-28 12:25 33.36589 126.61606 35182 ft 470 kts 13°
2026-04-28 12:25 33.42692 126.64244 35182 ft 470 kts 13°
2026-04-28 12:26 33.48813 126.66923 35182 ft 470 kts 14°
2026-04-28 12:26 33.55033 126.69286 35182 ft 463 kts
2026-04-28 12:27 33.61322 126.70260 35182 ft 456 kts 358°
2026-04-28 12:27 33.67645 126.70938 35182 ft 456 kts 358°
2026-04-28 12:28 33.73920 126.71690 35182 ft 457 kts 359°
2026-04-28 12:28 33.80231 126.72437 35182 ft 456 kts 359°
2026-04-28 12:29 33.89633 126.73399 35182 ft 456 kts 358°
2026-04-28 12:30 33.95940 126.74023 35181 ft 455 kts 358°
2026-04-28 12:30 34.02248 126.74647 35182 ft 454 kts 358°
2026-04-28 12:31 34.08510 126.75285 35182 ft 456 kts 358°
2026-04-28 12:31 34.14805 126.75942 35182 ft 456 kts 358°
2026-04-28 12:32 34.21102 126.76673 35182 ft 457 kts 359°
2026-04-28 12:32 34.27409 126.77418 35182 ft 457 kts 358°
2026-04-28 12:33 34.33711 126.78104 35219 ft 454 kts 358°
2026-04-28 12:33 34.39880 126.78777 35008 ft 442 kts 358°
2026-04-28 12:34 34.45972 126.79449 35158 ft 442 kts 358°
2026-04-28 12:34 34.52114 126.80107 35154 ft 448 kts 358°
2026-04-28 12:35 34.58263 126.80769 35155 ft 445 kts 358°
2026-04-28 12:35 34.64392 126.81410 35155 ft 444 kts 358°
2026-04-28 12:36 34.70525 126.82083 35155 ft 443 kts 358°
2026-04-28 12:36 34.76666 126.82756 35155 ft 446 kts 358°
2026-04-28 12:37 34.82821 126.83403 35155 ft 444 kts 358°
2026-04-28 12:37 34.88934 126.84058 35155 ft 443 kts 358°
2026-04-28 12:38 34.95107 126.84725 35155 ft 443 kts 356°
2026-04-28 12:38 35.01209 126.85374 35121 ft 443 kts 355°
2026-04-28 12:38 35.04271 126.85696 34819 ft 444 kts 355°
2026-04-28 12:39 35.07305 126.86036 34521 ft 442 kts 355°
2026-04-28 12:39 35.10375 126.86381 34217 ft 439 kts 355°
2026-04-28 12:39 35.13415 126.86707 33919 ft 439 kts 355°
2026-04-28 12:39 35.16446 126.87026 33621 ft 439 kts 355°
2026-04-28 12:40 35.19465 126.87347 33324 ft 441 kts 355°
2026-04-28 12:40 35.22519 126.87675 33148 ft 442 kts 355°
2026-04-28 12:40 35.25578 126.88000 33155 ft 445 kts 355°
2026-04-28 12:41 35.31740 126.88672 33151 ft 450 kts 355°
2026-04-28 12:41 35.37991 126.89363 33148 ft 450 kts 356°
2026-04-28 12:42 35.44153 126.90036 33147 ft 447 kts 356°
2026-04-28 12:42 35.50349 126.90694 32749 ft 457 kts 356°
2026-04-28 12:42 35.53492 126.91025 32261 ft 454 kts 356°
2026-04-28 12:43 35.56614 126.91374 31786 ft 449 kts 356°
2026-04-28 12:43 35.59701 126.91717 31312 ft 445 kts 356°
2026-04-28 12:43 35.62763 126.92053 30851 ft 446 kts 356°
2026-04-28 12:43 35.65874 126.92400 30404 ft 451 kts 357°
2026-04-28 12:44 35.68977 126.92747 29957 ft 453 kts 357°
2026-04-28 12:44 35.72120 126.93100 29504 ft 453 kts 357°
2026-04-28 12:44 35.75206 126.93439 29059 ft 452 kts 357°
2026-04-28 12:44 35.78330 126.93780 28609 ft 452 kts 358°
2026-04-28 12:45 35.81468 126.94122 28156 ft 452 kts 358°
2026-04-28 12:45 35.84566 126.94450 27709 ft 453 kts 358°
2026-04-28 12:45 35.87714 126.94773 27256 ft 454 kts 358°
2026-04-28 12:45 35.90860 126.95101 26804 ft 455 kts 358°
2026-04-28 12:46 35.93979 126.95435 26358 ft 456 kts 358°
2026-04-28 12:46 35.97158 126.95779 25904 ft 457 kts 358°
2026-04-28 12:46 36.00311 126.96122 25454 ft 458 kts 359°
2026-04-28 12:46 36.03470 126.96468 25003 ft 457 kts 359°
2026-04-28 12:47 36.06626 126.96815 24551 ft 455 kts 359°
2026-04-28 12:47 36.09761 126.97163 24098 ft 451 kts 359°
2026-04-28 12:47 36.12844 126.97504 23650 ft 447 kts 359°
2026-04-28 12:47 36.15994 126.97854 23188 ft 443 kts 359°
2026-04-28 12:48 36.19061 126.98194 22735 ft 440 kts 359°
2026-04-28 12:48 36.22096 126.98531 22284 ft 437 kts 360°
2026-04-28 12:48 36.25098 126.98864 21834 ft 435 kts 360°
2026-04-28 12:48 36.28091 126.99196 21389 ft 437 kts
2026-04-28 12:49 36.31118 126.99530 20936 ft 439 kts
2026-04-28 12:49 36.34139 126.99869 20480 ft 431 kts
2026-04-28 12:49 36.37092 127.00202 20030 ft 425 kts
2026-04-28 12:49 36.40011 127.00376 19577 ft 417 kts 355°
2026-04-28 12:50 36.42884 127.00260 19123 ft 409 kts 353°
2026-04-28 12:50 36.45666 127.00121 18675 ft 402 kts 354°
2026-04-28 12:50 36.48431 127.00017 18224 ft 396 kts 354°
2026-04-28 12:50 36.51172 126.99920 17771 ft 391 kts 354°
2026-04-28 12:51 36.53843 126.99819 17323 ft 385 kts 354°
2026-04-28 12:51 36.56510 126.99719 16870 ft 380 kts 354°
2026-04-28 12:51 36.59133 126.99623 16419 ft 375 kts 355°
2026-04-28 12:51 36.61722 126.99531 16071 ft 367 kts 355°
2026-04-28 12:52 36.64203 126.99445 16074 ft 350 kts 355°
2026-04-28 12:52 36.66578 126.99362 16077 ft 336 kts 354°
2026-04-28 12:52 36.68943 126.99274 16078 ft 340 kts 354°
2026-04-28 12:52 36.71320 126.99257 16073 ft 345 kts
2026-04-28 12:53 36.73667 126.99897 15932 ft 354 kts 18°
2026-04-28 12:53 36.75757 127.01501 15681 ft 357 kts 38°
2026-04-28 12:53 36.77563 127.03590 15440 ft 354 kts 41°
2026-04-28 12:53 36.79371 127.05667 15188 ft 351 kts 39°
2026-04-28 12:54 36.81173 127.07694 14938 ft 349 kts 40°
2026-04-28 12:54 36.82978 127.09747 14686 ft 348 kts 40°
2026-04-28 12:54 36.84750 127.11778 14436 ft 346 kts 40°
2026-04-28 12:54 36.86506 127.13792 14187 ft 345 kts 40°
2026-04-28 12:55 36.88274 127.15823 13935 ft 343 kts 40°
2026-04-28 12:55 36.90023 127.17834 13684 ft 341 kts 40°
2026-04-28 12:55 36.91763 127.19838 13433 ft 339 kts 41°
2026-04-28 12:55 36.93464 127.21798 13186 ft 337 kts 41°
2026-04-28 12:56 36.95204 127.23804 12973 ft 334 kts 41°
2026-04-28 12:56 36.96888 127.25749 12975 ft 333 kts 41°
2026-04-28 12:56 36.98586 127.27717 12974 ft 337 kts 41°
2026-04-28 12:56 37.00308 127.29716 12979 ft 338 kts 40°
2026-04-28 12:57 37.02039 127.31725 12983 ft 339 kts 40°
2026-04-28 12:57 37.03773 127.33740 12986 ft 340 kts 40°
2026-04-28 12:57 37.05506 127.35756 12988 ft 340 kts 40°
2026-04-28 12:57 37.07247 127.37781 12990 ft 341 kts 40°
2026-04-28 12:58 37.08969 127.39784 12852 ft 345 kts 40°
2026-04-28 12:58 37.10719 127.41823 12514 ft 343 kts 39°
2026-04-28 12:58 37.12598 127.43597 11869 ft 333 kts 23°
2026-04-28 12:58 37.14753 127.44310 11245 ft 314 kts 356°
2026-04-28 12:59 37.16881 127.44041 10674 ft 304 kts 346°
2026-04-28 12:59 37.18896 127.43283 10145 ft 301 kts 329°
2026-04-28 12:59 37.20427 127.41615 9739 ft 293 kts 306°
2026-04-28 12:59 37.21593 127.39537 9344 ft 291 kts 300°
2026-04-28 13:00 37.22324 127.37196 8939 ft 288 kts 281°
2026-04-28 13:00 37.22644 127.34750 8620 ft 284 kts 279°
2026-04-28 13:00 37.22990 127.32330 8291 ft 280 kts 281°
2026-04-28 13:00 37.23349 127.29932 8006 ft 274 kts 281°
2026-04-28 13:01 37.23689 127.27638 7997 ft 261 kts 281°
2026-04-28 13:01 37.24027 127.25373 8000 ft 263 kts 281°
2026-04-28 13:01 37.24362 127.23125 7997 ft 264 kts 281°
2026-04-28 13:01 37.24697 127.20875 7999 ft 264 kts 281°
2026-04-28 13:02 37.25042 127.18612 7997 ft 264 kts 284°
2026-04-28 13:02 37.25777 127.16499 7999 ft 263 kts 306°
2026-04-28 13:02 37.27080 127.14889 7993 ft 265 kts 318°
2026-04-28 13:02 37.28469 127.13337 7422 ft 275 kts 316°
2026-04-28 13:03 37.29890 127.11700 6792 ft 283 kts 317°
2026-04-28 13:03 37.31330 127.10016 6317 ft 280 kts 315°
2026-04-28 13:03 37.32673 127.08331 5911 ft 267 kts 315°
2026-04-28 13:03 37.33957 127.06728 5534 ft 255 kts 315°
2026-04-28 13:04 37.35184 127.05200 5280 ft 242 kts 315°
2026-04-28 13:04 37.36395 127.03691 5206 ft 247 kts 315°
2026-04-28 13:04 37.37615 127.02170 4675 ft 246 kts 315°
2026-04-28 13:04 37.38792 127.00703 4335 ft 235 kts 315°
2026-04-28 13:05 37.39922 126.99294 4052 ft 223 kts 315°
2026-04-28 13:05 37.40986 126.97962 3966 ft 207 kts 315°
2026-04-28 13:05 37.42024 126.96658 3672 ft 211 kts 315°
2026-04-28 13:05 37.43041 126.95386 3361 ft 202 kts 316°
2026-04-28 13:06 37.44002 126.94187 3091 ft 188 kts 316°
2026-04-28 13:06 37.44902 126.93064 2833 ft 178 kts 316°
2026-04-28 13:06 37.45779 126.91967 2600 ft 172 kts 316°
2026-04-28 13:06 37.46625 126.90914 2344 ft 172 kts 314°
2026-04-28 13:07 37.47511 126.89809 2113 ft 180 kts 313°
2026-04-28 13:07 37.48356 126.88749 1870 ft 161 kts 314°
2026-04-28 13:07 37.49137 126.87769 1682 ft 159 kts 314°
2026-04-28 13:07 37.49910 126.86803 1440 ft 157 kts 314°
2026-04-28 13:08 37.50683 126.85836 1224 ft 156 kts 314°
2026-04-28 13:08 37.51447 126.84885 1062 ft 151 kts 315°
2026-04-28 13:08 37.52214 126.83956 792 ft 152 kts 315°
2026-04-28 13:08 37.52947 126.83020 602 ft 148 kts 313°
2026-04-28 13:09 37.53666 126.82095 404 ft 150 kts 315°
2026-04-28 13:09 37.54416 126.81170 207 ft 152 kts 314°
2026-04-28 13:09 37.55164 126.80224 79 ft 145 kts 314°
2026-04-28 13:09 37.55787 126.79439 68 ft 98 kts 315°
2026-04-28 13:10 37.56118 126.79023 67 ft 40 kts 315°
2026-04-28 13:10 37.56315 126.78777 67 ft 44 kts 316°
2026-04-28 13:10 37.56519 126.78522 67 ft 23 kts 315°
2026-04-28 13:10 37.56591 126.78485 67 ft 10 kts 35°
2026-04-28 13:11 37.56627 126.78527 67 ft 5 kts 45°
2026-04-28 13:11 37.56648 126.78554 67 ft 3 kts 45°
2026-04-28 13:11 37.56663 126.78574 67 ft 2 kts 45°
2026-04-28 13:11 37.56672 126.78587 67 ft 1 kts 63°
2026-04-28 13:12 37.56669 126.78620 67 ft 6 kts 109°
2026-04-28 13:12 37.56642 126.78661 67 ft 6 kts 135°
2026-04-28 13:12 37.56596 126.78718 67 ft 11 kts 135°
2026-04-28 13:12 37.56525 126.78809 67 ft 16 kts 135°
2026-04-28 13:13 37.56440 126.78914 67 ft 5 kts 135°
2026-04-28 13:13 37.56408 126.78954 67 ft 7 kts 135°
2026-04-28 13:13 37.56367 126.79007 67 ft 9 kts 135°
2026-04-28 13:13 37.56318 126.79068 67 ft 10 kts 135°
2026-04-28 13:14 37.56290 126.79142 67 ft 8 kts 53°
2026-04-28 13:14 37.56332 126.79191 67 ft 9 kts 44°
2026-04-28 13:14 37.56381 126.79254 67 ft 11 kts 45°
2026-04-28 13:14 37.56441 126.79328 67 ft 12 kts 44°
2026-04-28 13:15 37.56508 126.79414 67 ft 14 kts 46°
2026-04-28 13:15 37.56583 126.79508 67 ft 16 kts 45°
2026-04-28 13:15 37.56666 126.79610 67 ft 17 kts 45°
2026-04-28 13:15 37.56757 126.79725 67 ft 19 kts 45°
2026-04-28 13:16 37.56844 126.79834 67 ft 17 kts 45°
2026-04-28 13:16 37.56932 126.79945 67 ft 14 kts 44°
2026-04-28 13:16 37.56961 126.79996 67 ft 6 kts 95°
2026-04-28 13:16 37.56939 126.80035 67 ft 5 kts 131°
2026-04-28 13:17 37.56913 126.80065 67 ft 4 kts 137°
2026-04-28 13:17 37.56892 126.80093 67 ft 4 kts 134°
2026-04-28 13:17 37.56879 126.80120 67 ft 3 kts 103°
2026-04-28 13:17 37.56878 126.80147 67 ft 3 kts 92°
2026-04-28 13:18 37.56875 126.80177 67 ft 3 kts 117°
2026-04-28 13:18 37.56863 126.80197 67 ft 3 kts 131°
2026-04-28 13:18 37.56845 126.80223 67 ft 4 kts 135°
2026-04-28 13:18 37.56836 126.80235 67 ft 0 kts 135°
2026-04-28 13:19 37.56833 126.80238 67 ft 0 kts 135°
2026-04-28 13:19 37.56831 126.80240 67 ft 0 kts 134°
2026-04-28 13:19 37.56826 126.80247 67 ft 1 kts 134°
2026-04-28 13:19 37.56821 126.80254 67 ft 0 kts 134°
2026-04-28 13:20 37.56820 126.80254 67 ft 0 kts 134°